Home   Weather   Peshawar   Past weeks

Flag for Pakistan Past Weather in Peshawar, Pakistan — Yesterday and Last 2 Weeks

86 °F


Feels Like: 84 °F
Forecast: 56 / 83 °F
Wind: 7 mph from Northeast

Location: Peshawar Airport

Current Time: Oct 21, 2016 at 2:19:05 PM

Latest Report: Oct 21, 2016 at 2:00 PM

Visibility: 2 mi

Pressure: 29.83 "Hg

Humidity: 33%

Dew Point: 54 °F

Location of PeshawarLocation

Past Weather in Peshawar — Graph


Peshawar Temperature Yesterday

Maximum temperature yesterday: 88 °F (at 3:00 PM)
Minimum temperature yesterday: 68 °F (at 4:00 AM)
Average temperature yesterday: 78 °F

High & Low Weather Summary for the Past Weeks

High93 °F (Oct 11, 2:00 PM)87% (Oct 15, 9:30 AM)30.09 "Hg (Oct 15, 9:30 AM)
Low41 °F (Oct 15, 9:30 AM)24% (Oct 11, 2:00 PM)29.56 "Hg (Oct 7, 8:00 AM)
Average79 °F47%29.82 "Hg
* Reported Oct 6 1:00 PM — Oct 21 1:00 PM, Peshawar, Weather by CustomWeather, © 2016

Note: Actual official high and low records may vary slightly from our data, if they occured in-between our weather recording intervals... More about our weather records


Peshawar Weather History for the Previous 24 Hours

Scroll right to see more
Time TempWeatherWind HumidityBarometerVisibility
1:00 PM
Fri, Oct 21
86 °FHaze.7 mph33%29.86 "Hg2 mi
12:30 PM82 °FSunny.7 mph40%29.89 "Hg2 mi
12:00 PM82 °FSunny.7 mph40%29.89 "Hg2 mi
11:30 AM81 °FSunny.7 mph45%29.89 "Hg2 mi
11:00 AM81 °FSunny.7 mph45%29.89 "Hg2 mi
10:30 AM77 °FHaze.7 mph51%29.89 "Hg2 mi
10:00 AM77 °FHaze.7 mph51%29.89 "Hg2 mi
9:30 AM73 °FHaze.7 mph61%29.89 "Hg2 mi
9:00 AM73 °FHaze.7 mph61%29.89 "Hg2 mi
8:30 AM68 °FHaze.5 mph64%29.89 "Hg1 mi
8:00 AM68 °FHaze.5 mph64%29.89 "Hg1 mi
7:30 AM66 °FHaze.5 mph68%29.86 "Hg1 mi
7:00 AM66 °FHaze.5 mph68%29.86 "Hg1 mi
6:30 AM66 °FHaze.5 mph73%29.83 "Hg2 mi
6:00 AM66 °FHaze.5 mph73%29.83 "Hg2 mi
5:30 AM64 °FPassing clouds.5 mph78%29.80 "Hg2 mi
5:00 AM64 °FPassing clouds.5 mph78%29.80 "Hg2 mi
4:30 AM66 °FPassing clouds.7 mph73%29.80 "Hg2 mi
4:00 AM66 °FPassing clouds.7 mph73%29.80 "Hg2 mi
3:00 AM72 °FPassing clouds.7 mph61%29.77 "Hg2 mi
2:00 AM72 °FPassing clouds.7 mph61%29.77 "Hg2 mi
1:00 AM72 °FPassing clouds.9 mph61%29.77 "Hg2 mi
12:00 AM73 °FPassing clouds.7 mph61%29.77 "Hg2 mi
11:30 PM
Thu, Oct 20
73 °FPartly cloudy.9 mph61%29.77 "Hg1 mi
11:00 PM73 °FPartly cloudy.9 mph61%29.77 "Hg1 mi
10:30 PM73 °FThundershowers. Partly cloudy.9 mph61%29.77 "Hg1 mi
10:00 PM73 °FThundershowers. Partly cloudy.9 mph61%29.77 "Hg1 mi
9:30 PM77 °FThunderstorms. Partly cloudy.12 mph39%29.77 "Hg1 mi
9:00 PM77 °FThunderstorms. Partly cloudy.12 mph39%29.77 "Hg1 mi
8:30 PM81 °FPassing clouds.12 mph37%29.74 "Hg1 mi
8:00 PM81 °FPassing clouds.12 mph37%29.74 "Hg1 mi
7:00 PM82 °FPassing clouds.14 mph37%29.71 "Hg1 mi
6:00 PM82 °FPassing clouds.12 mph37%29.71 "Hg1 mi
5:30 PM84 °FScattered clouds.7 mph35%29.68 "Hg1 mi
5:00 PM84 °FScattered clouds.7 mph35%29.68 "Hg1 mi
4:30 PM86 °FHaze.7 mph33%29.71 "Hg2 mi
4:00 PM86 °FHaze.7 mph33%29.71 "Hg2 mi
3:30 PM88 °FHaze.12 mph33%29.71 "Hg2 mi
3:00 PM88 °FHaze.12 mph33%29.71 "Hg2 mi
2:30 PM86 °FHaze.12 mph33%29.74 "Hg2 mi
2:00 PM86 °FHaze.12 mph33%29.74 "Hg2 mi
Weather by CustomWeather, © 2016

See weather overviewHow to use our weather pages